Regional Weather Roundup
Issued by NWS

Home | Current Version | Previous Version | Text Only | Print | Product List | Glossary Off
Versions: 1 2 3 4 5 6 7 8 9 10 11 12 13 14 15 16 17 18 19 20 21 22 23 24 25 26 27 28 29 30 31 32 33 34 35 36 37 38 39 40 41 42 43 44 45 46 47 48 49 50

000
ASUS43 KLOT 271210
RWRIL

ILLINOIS REGIONAL WEATHER ROUNDUP
NATIONAL WEATHER SERVICE CHICAGO/ROMEOVILLE IL
600 AM CST THU NOV 27 2014

NOTE: "FAIR" INDICATES FEW OR NO CLOUDS BELOW 12,000 FEET WITH NO
SIGNIFICANT WEATHER AND/OR OBSTRUCTIONS TO VISIBILITY.

* THESE STATIONS ARE NOT UNDER NWS QUALITY CONTROL. THEY ALSO MAY NOT
  REPORT WEATHER SUCH AS PRECIPITATION OR FOG.

ILZ001-002-007-009-015-016-024-271300-
NORTHWEST ILLINOIS

CITY           SKY/WX    TMP DP  RH WIND       PRES   REMARKS
MOLINE         CLOUDY    26  20  77 W9        30.36R WCI  17
6HR MIN TEMP:  23; 6HR MAX TEMP:  26;

STERLING*      CLOUDY    25  18  74 NW8       30.33R WCI  16
SAVANNA*       CLOUDY    26  21  80 W6        30.34S WCI  20
$$

ILZ003-004-008-010-011-017-018-271300-
NORTH CENTRAL ILLINOIS

CITY           SKY/WX    TMP DP  RH WIND       PRES   REMARKS
ROCKFORD       CLOUDY    22  18  85 NW9       30.32R WCI  12
6HR MIN TEMP:  18; 6HR MAX TEMP:  22; 6HR PCP: TRACE;

FREEPORT*      FLURRIES  23  19  84 NW9       30.32R WCI  13
ROCHELLE*      CLOUDY    22  19  89 W9        30.31R WCI  11
DE KALB*       CLOUDY    19  17  90 W12       30.28R FOG     WCI   7
PERU*          CLOUDY    24  21  89 NW10      30.33R FOG     WCI  13
$$

ILZ005-006-012>014-019>023-271300-
NORTHEAST ILLINOIS

CITY           SKY/WX    TMP DP  RH WIND       PRES   REMARKS
CHICAGO-OHARE  CLOUDY    24  19  81 NW9       30.26R WCI  14
6HR MIN TEMP:  23; 6HR MAX TEMP:  26; 6HR PCP: TRACE;

CHICAGO-MIDWAY CLOUDY    26  19  74 W7        30.26R WCI  18
6HR MIN TEMP:  26; 6HR MAX TEMP:  30; 6HR PCP: TRACE;

AURORA         CLOUDY    23  18  81 NW14      30.29R HAZE    WCI  11
6HR MIN TEMP:  18; 6HR MAX TEMP:  25;

LANSING*       CLOUDY    26  19  77 NW7       30.26R WCI  18
JOLIET*        CLOUDY    21  18  86 W5        30.29S FOG     WCI  15
WAUKEGAN       CLOUDY    22  18  85 NW10      30.24R WCI  11
6HR MIN TEMP:  20; 6HR MAX TEMP:  24; 6HR PCP: TRACE;

DUPAGE AIRPORT CLOUDY    22  18  85 NW8       30.26R WCI  12
6HR MIN TEMP:  20; 6HR MAX TEMP:  25;

KANKAKEE*      CLOUDY   N/A N/A N/A W10       30.29R
WHEELING       CLOUDY    24  19  81 NW8       30.27R WCI  15
6HR MIN TEMP:  22; 6HR MAX TEMP:  26;

MORRIS*        CLOUDY    23  20  91 W9        30.29S FOG     WCI  13
ROMEOVILLE*    CLOUDY    22  19  87 W8        30.28R FOG     WCI  13
NORTHERLY ISL    N/A     26  20  77 W3          N/A
$$

LMZ740>746-271300-
SOUTHERN LAKE MICHIGAN

STATION/POSITION SKY/WX   TEMP    WIND        PRES    VSBY  WAVE
                          AIR SEA DIR/SP/G                  HT/PER
                          (F)     (DEG/KT/KT) (MB)    (MI)  (FT/S)
SOUTHERN BUOY              31 42  310/ 17/ 19 1023.5R         4/ 5
WAUKEGAN HARBOR            23     310/ 11/ 13   N/A
HARRISON CRIB              25     320/ 15/ 18   N/A
BURNHAM HARBOR             26     270/  6/ 11   N/A
CALUMET HARBOR             26     290/  6/ 13 1023.3R
MICHIGAN CITY              31     290/ 20/ 22   N/A
$$

ILZ025>027-034>036-040-047-049-050-058-095>099-271300-
WEST-CENTRAL ILLINOIS

CITY           SKY/WX    TMP DP  RH WIND       PRES   REMARKS
QUINCY         CLOUDY    27  22  81 NW15      30.41R WCI  15
GALESBURG*     CLOUDY    25  22  87 NW8       30.36R WCI  16
MACOMB*        CLOUDY    26  23  87 NW13      30.40R WCI  15
JACKSONVILLE*  CLOUDY    29  25  84 NW10      30.38R HAZE    WCI  20
PITTSFIELD*    CLOUDY    30  26  85 NW12      30.41R WCI  20
$$

ILZ028>032-037-038-041>044-048-051>054-059>061-271300-
CENTRAL ILLINOIS

CITY           SKY/WX    TMP DP  RH WIND       PRES   REMARKS
PONTIAC        CLOUDY    24  21  89 NW12      30.32R FOG     WCI  13
BLOOMINGTON    CLOUDY    23  20  89 NW14      30.32R WCI  11
DECATUR        CLOUDY    24  19  81 NW12      30.34R WCI  13
PEORIA         CLOUDY    26  21  81 NW7       30.35R WCI  18
6HR MIN TEMP:  24; 6HR MAX TEMP:  26;

LACON*         CLOUDY    24  20  85 NW10      30.34R WCI  14
LINCOLN*       CLOUDY    26  22  86 NW7       30.36S WCI  18
SPRINGFIELD    CLOUDY    26  22  84 NW9       30.37R WCI  17
6HR MIN TEMP:  23; 6HR MAX TEMP:  26;

TAYLORVILLE    MOCLDY    21  19  93 N7        30.36R WCI  13
$$

ILZ033-039-045-046-055>057-062-063-271300-
EAST-CENTRAL ILLINOIS

CITY           SKY/WX    TMP DP  RH WIND       PRES   REMARKS
CHAMPAIGN      CLOUDY    24  20  84 NW15      30.30R FOG     WCI  11
DANVILLE*      CLOUDY    26  24  89 NW15      30.25R FOG     WCI  14
RANTOUL*       CLOUDY    25  22  86 NW13      30.30R FOG     WCI  14
MATTOON        PTCLDY    22  18  85 NW16      30.31R WCI   8
PARIS*         CLOUDY    25  23  94 W8        30.30R FOG     WCI  16
$$

ILZ079-100>102-271300-
SOUTHWEST ILLINOIS

CITY           SKY/WX    TMP DP  RH WIND       PRES   REMARKS
BELLEVILLE     CLOUDY    28  26  91 NW10      30.39R WCI  19
CAHOKIA*       CLOUDY    30  24  78 NW18      30.42R WCI  18
SPARTA*        PTCLDY    28  25  87 NW9       30.39R WCI  19
$$

ILZ064>066-069>071-074>076-080>082-084>086-088>090-092>094-271300-
SOUTH-CENTRAL ILLINOIS

CITY           SKY/WX    TMP DP  RH WIND       PRES   REMARKS
CARBONDALE     CLOUDY    30  26  85 N14       30.39R WCI  19
6HR MIN TEMP:  30; 6HR MAX TEMP:  33; 6HR PCP:  0.02;

CAIRO*         CLOUDY    37  32  82 NW12      30.38R WCI  29
EFFINGHAM*     PTCLDY    22  16  79 W8        30.36R WCI  12
MARION         CLOUDY    32  27  80 NW9G21    30.38R WCI  24
MT. VERNON     CLOUDY    27  19  74 CALM      30.37R
CENTRALIA*     CLOUDY    27  23  85 NW9       30.37R WCI  18
SALEM*           N/A     28  23  84 NW12      30.38R WCI  17
METROPOLIS*    CLOUDY    34  34 100 NW6         N/A  WCI  29
$$

ILZ067-068-072-073-078-083-087-091-271300-
SOUTHEAST ILLINOIS

CITY           SKY/WX    TMP DP  RH WIND       PRES   REMARKS
LAWRENCEVILLE  CLOUDY    28  24  85 NW13      30.32R WCI  17
FLORA*         CLEAR     25  22  87 NW9       30.37R WCI  15
FAIRFIELD*     CLOUDY    28  24  85 NW7       30.35R WCI  20
HARRISBURG*    MOCLDY    31  29  93 NW8       30.37R WCI  23
ROBINSON*      CLEAR     26  22  85 NW6       30.34R WCI  19
CARMI*         MOCLDY    30  28  92 N14       30.34R WCI  20
$$

ABBREVIATIONS USED IN REMARKS
   TC - TEMPERATURE IN CELSIUS
  WCI - WIND CHILL INDEX
   HX - HEAT INDEX
  VSB - VISIBILITY
$$




USA.gov is the U.S. government's official web portal to all federal, state and local government web resources and services.